TimeChST,TemperatureF,Dew PointF,Humidity,Sea Level PressureIn,VisibilityMPH,Wind Direction,Wind SpeedMPH,Gust SpeedMPH,PrecipitationIn,Events,Conditions,WindDirDegrees,DateUTC
12:34 AM,78.8,75.2,89,29.93,10.0,East,15.0,24.2,N/A,,Mostly Cloudy,80,2013-01-01 14:34:00
12:54 AM,78.1,75.9,93,29.99,10.0,East,17.3,-,N/A,,Overcast,90,2013-01-01 14:54:00
1:54 AM,78.1,77.0,96,29.98,10.0,East,15.0,-,0.02,,Overcast,80,2013-01-01 15:54:00
2:54 AM,78.1,77.0,96,29.96,10.0,ENE,16.1,-,0.00,,Mostly Cloudy,70,2013-01-01 16:54:00
3:50 AM,78.8,77.0,94,29.89,10.0,East,16.1,-,N/A,,Mostly Cloudy,80,2013-01-01 17:50:00
3:54 AM,78.1,77.0,96,29.95,10.0,East,15.0,-,N/A,,Mostly Cloudy,80,2013-01-01 17:54:00
4:06 AM,78.8,75.2,89,29.89,9.0,East,18.4,27.6,N/A,,Mostly Cloudy,80,2013-01-01 18:06:00
4:54 AM,78.1,77.0,96,29.96,10.0,East,13.8,-,N/A,,Mostly Cloudy,80,2013-01-01 18:54:00
5:08 AM,78.8,77.0,94,29.89,10.0,East,16.1,-,N/A,,Mostly Cloudy,80,2013-01-01 19:08:00
5:18 AM,78.8,75.2,89,29.89,10.0,ENE,18.4,21.9,N/A,,Overcast,70,2013-01-01 19:18:00
5:33 AM,78.8,75.2,89,29.90,10.0,ENE,16.1,-,N/A,,Overcast,70,2013-01-01 19:33:00
5:54 AM,78.1,75.9,93,29.97,10.0,ENE,16.1,-,N/A,,Overcast,70,2013-01-01 19:54:00
6:39 AM,78.8,77.0,94,29.91,10.0,East,15.0,-,N/A,,Mostly Cloudy,80,2013-01-01 20:39:00
6:54 AM,78.1,75.9,93,29.99,10.0,East,17.3,-,N/A,,Mostly Cloudy,80,2013-01-01 20:54:00
7:01 AM,78.8,77.0,94,29.92,10.0,ENE,16.1,-,N/A,,Mostly Cloudy,70,2013-01-01 21:01:00
7:54 AM,79.0,77.0,94,30.00,10.0,ENE,19.6,24.2,N/A,,Mostly Cloudy,70,2013-01-01 21:54:00
8:54 AM,80.1,77.0,90,30.02,10.0,ENE,19.6,26.5,N/A,,Mostly Cloudy,70,2013-01-01 22:54:00
9:54 AM,81.0,77.0,88,30.03,10.0,ENE,21.9,-,N/A,,Scattered Clouds,60,2013-01-01 23:54:00
10:54 AM,82.0,77.0,85,30.00,10.0,East,21.9,29.9,N/A,,Mostly Cloudy,80,2013-01-02 00:54:00
11:54 AM,82.0,78.1,88,29.98,10.0,ENE,20.7,-,0.00,,Scattered Clouds,70,2013-01-02 01:54:00
12:54 PM,82.0,78.1,88,29.96,10.0,ENE,16.1,26.5,N/A,,Mostly Cloudy,70,2013-01-02 02:54:00
1:54 PM,82.0,77.0,85,29.94,10.0,ENE,21.9,26.5,N/A,,Mostly Cloudy,60,2013-01-02 03:54:00
2:54 PM,82.0,75.9,82,29.94,10.0,ENE,21.9,27.6,N/A,,Scattered Clouds,70,2013-01-02 04:54:00
3:54 PM,82.0,75.9,82,29.94,10.0,ENE,21.9,26.5,N/A,,Mostly Cloudy,70,2013-01-02 05:54:00
4:54 PM,80.1,75.9,87,29.95,10.0,ENE,18.4,25.3,N/A,,Scattered Clouds,70,2013-01-02 06:54:00
5:54 PM,78.1,75.9,93,29.96,10.0,ENE,17.3,25.3,N/A,,Scattered Clouds,60,2013-01-02 07:54:00
6:54 PM,78.1,75.9,93,29.97,10.0,ENE,19.6,-,N/A,,Scattered Clouds,60,2013-01-02 08:54:00
7:54 PM,78.1,75.9,93,29.98,10.0,ENE,19.6,26.5,0.00,,Mostly Cloudy,70,2013-01-02 09:54:00
8:54 PM,78.1,75.9,93,30.00,10.0,ENE,20.7,26.5,N/A,,Mostly Cloudy,70,2013-01-02 10:54:00
9:54 PM,77.0,75.0,94,30.01,10.0,East,16.1,-,0.00,,Scattered Clouds,80,2013-01-02 11:54:00
10:29 PM,78.8,75.2,89,29.94,10.0,East,16.1,-,N/A,,Mostly Cloudy,80,2013-01-02 12:29:00
10:54 PM,75.0,73.9,96,30.01,7.0,East,19.6,28.8,0.01,Rain,Light Rain,80,2013-01-02 12:54:00
11:54 PM,75.0,75.0,100,30.01,10.0,ESE,18.4,29.9,0.00,,Mostly Cloudy,110,2013-01-02 13:54:00